Regional Weather Roundup
Issued by NWS

Home | Current Version | Previous Version | Graphics & Text | Print | Product List | Glossary On
Versions: 1 2 3 4 5 6 7 8 9 10 11 12 13 14 15 16 17 18 19 20 21 22 23 24 25 26 27 28 29 30 31 32 33 34 35 36 37 38 39 40 41 42 43 44 45 46 47 48 49 50
000
ASUS43 KLMK 291710
RWRKY
KENTUCKY REGIONAL WEATHER ROUNDUP
NATIONAL WEATHER SERVICE LOUISVILLE KY
100 PM EDT SAT AUG 29 2015

NOTE "FAIR" INDICATES FEW OR NO CLOUDS BELOW 12,000 FEET
WITH NO SIGNIFICANT WEATHER AND/OR OBSTRUCTIONS TO VISIBILITY.

KYZ001>023-026-027-061>063-070>075-291800-
WESTERN AND SOUTH CENTRAL KENTUCKY

CITY           SKY/WX    TMP DP  RH WIND       PRES   REMARKS
PADUCAH        PTSUNNY   84  72  67 S7        30.08S
HENDERSON      PTSUNNY   84  70  61 SW6       30.07F
OWENSBORO      MOSUNNY   85  72  65 VRB7      30.10F HX  91
HOPKINSVILLE   SUNNY     86  71  60 S8        30.11F HX  92
BOWLING GREEN  PTSUNNY   86  69  56 S10       30.13F HX  90
GLASGOW        MOSUNNY   83  68  60 SW8       30.15F
$$

KYZ024-025-028>034-038-045-046-053-291800-
NORTH CENTRAL KENTUCKY

CITY           SKY/WX    TMP DP  RH WIND       PRES   REMARKS
LOUISVILLE/SDF MOSUNNY   85  68  56 SW7       30.11F
LOUISVILLE/LOU MOSUNNY   85  69  58 S8        30.13F
FORT KNOX      MOSUNNY   83  70  63 VRB6      30.12F
$$

KYZ035>037-039>044-047>052-055>060-089>105-291800-
NORTHEAST KENTUCKY

CITY           SKY/WX    TMP DP  RH WIND       PRES   REMARKS
LEXINGTON      MOSUNNY   85  66  53 S15       30.16F
COVINGTON      MOSUNNY   83  69  62 VRB6      30.14F
FRANKFORT      CLOUDY    82  66  58 SW9       30.14F
$$

KYZ054-064>069-076>088-106>120-291800-
SOUTHEAST KENTUCKY

CITY           SKY/WX    TMP DP  RH WIND       PRES   REMARKS
JACKSON        MOSUNNY   79  65  62 VRB5      30.22F
LONDON         MOSUNNY   80  62  54 S7        30.21F
SOMERSET       PTSUNNY   79  64  61 SW6       30.20F
MIDDLESBORO    MOSUNNY   81  64  55 SE5       30.22F
MONTICELLO     MOSUNNY   82  69  64 S12       30.21F
$$



USA.gov is the U.S. government's official web portal to all federal, state and local government web resources and services.